"Sample Date","Sample Time","Sample Value","Units","Flow Rate","Laser Status","Micron Size 0","Counts/Channel 0","Micron Size 1","Counts/Channel 1","Micron Size 2","Counts/Channel 2","Micron Size 3","Counts/Channel 3","Micron Size 4","Counts/Channel 4","Micron Size 5","Counts/Channel 5","Micron Size 6","Counts/Channel 6","Micron Size 7","Counts/Channel 7","Micron Size 8","Counts/Channel 8","Micron Size 9","Counts/Channel 9","Micron Size 10","Counts/Channel 10","Micron Size 11","Counts/Channel 11","Micron Size 12","Counts/Channel 12","Micron Size 13","Counts/Channel 13","Micron Size 14","Counts/Channel 14","Micron Size 15","Counts/Channel 15","Micron Size 16","Counts/Channel 16","Micron Size 17","Counts/Channel 17","Micron Size 18","Counts/Channel 18","Micron Size 19","Counts/Channel 19","Micron Size 20","Counts/Channel 20","Micron Size 21","Counts/Channel 21","Micron Size 22","Counts/Channel 22","Micron Size 23","Counts/Channel 23","Micron Size 24","Counts/Channel 24","Micron Size 25","Counts/Channel 25","Micron Size 26","Counts/Channel 26","Micron Size 27","Counts/Channel 27","Micron Size 28","Counts/Channel 28","Micron Size 29","Counts/Channel 29","Micron Size 30","Counts/Channel 30","Micron Size 31","Counts/Channel 31"
"03/04/08","14:00:02",35617.000,"cc",28305.957,1,0.100,30975.000,0.200,2513.000,0.300,887.000,0.500,904.000,1.000,338.000,5.000,0
"03/04/08","14:00:08",35669.000,"cc",28299.770,1,0.100,30898.000,0.200,2504.000,0.300,920.000,0.500,993.000,1.000,354.000,5.000,0
"03/04/08","14:00:14",35874.000,"cc",28362.291,1,0.100,31227.000,0.200,2514.000,0.300,863.000,0.500,938.000,1.000,331.000,5.000,1.000
"03/04/08","14:00:20",35126.000,"cc",28325.981,1,0.100,30438.000,0.200,2528.000,0.300,914.000,0.500,947.000,1.000,299.000,5.000,0
"03/04/08","14:00:26",35442.000,"cc",28348.074,1,0.100,30929.000,0.200,2369.000,0.300,912.000,0.500,923.000,1.000,309.000,5.000,0
"03/04/08","14:00:32",35525.000,"cc",28275.332,1,0.100,30918.000,0.200,2499.000,0.300,847.000,0.500,932.000,1.000,329.000,5.000,0
"03/04/08","14:00:38",35515.000,"cc",28283.131,1,0.100,30920.000,0.200,2449.000,0.300,868.000,0.500,945.000,1.000,333.000,5.000,0
"03/04/08","14:00:44",35263.000,"cc",28331.645,1,0.100,30676.000,0.200,2404.000,0.300,903.000,0.500,939.000,1.000,341.000,5.000,0
"03/04/08","14:00:50",35783.000,"cc",28314.861,1,0.100,31075.000,0.200,2571.000,0.300,841.000,0.500,965.000,1.000,331.000,5.000,0
"03/04/08","14:00:56",35696.000,"cc",28329.418,1,0.100,31021.000,0.200,2490.000,0.300,882.000,0.500,959.000,1.000,344.000,5.000,0
"03/04/08","14:01:02",35625.000,"cc",28339.002,1,0.100,31000.000,0.200,2499.000,0.300,866.000,0.500,933.000,1.000,327.000,5.000,0
"03/04/08","14:01:08",36498.000,"cc",28372.061,1,0.100,31760.000,0.200,2471.000,0.300,945.000,0.500,987.000,1.000,335.000,5.000,0
"03/04/08","14:01:14",35854.000,"cc",28238.707,1,0.100,30997.000,0.200,2584.000,0.300,973.000,0.500,963.000,1.000,337.000,5.000,0
"03/04/08","14:01:20",37026.000,"cc",28238.695,1,0.100,32191.000,0.200,2507.000,0.300,945.000,0.500,1018.000,1.000,365.000,5.000,0
"03/04/08","14:01:26",36804.000,"cc",28441.084,1,0.100,31883.000,0.200,2512.000,0.300,969.000,0.500,1055.000,1.000,385.000,5.000,0
"03/04/08","14:01:32",36575.000,"cc",28235.680,1,0.100,31750.000,0.200,2467.000,0.300,932.000,0.500,1033.000,1.000,393.000,5.000,0
"03/04/08","14:01:38",36603.000,"cc",28265.615,1,0.100,31692.000,0.200,2537.000,0.300,934.000,0.500,1073.000,1.000,367.000,5.000,0
"03/04/08","14:01:44",35558.000,"cc",28377.127,1,0.100,30898.000,0.200,2480.000,0.300,896.000,0.500,976.000,1.000,308.000,5.000,0
"03/04/08","14:01:50",35352.000,"cc",28358.348,1,0.100,30872.000,0.200,2368.000,0.300,854.000,0.500,945.000,1.000,313.000,5.000,0
"03/04/08","14:01:56",36153.000,"cc",28289.088,1,0.100,31527.000,0.200,2409.000,0.300,950.000,0.500,931.000,1.000,336.000,5.000,0
"03/04/08","14:02:02",34858.000,"cc",28309.063,1,0.100,30292.000,0.200,2426.000,0.300,834.000,0.500,957.000,1.000,349.000,5.000,0
"03/04/08","14:02:08",35337.000,"cc",28306.020,1,0.100,30748.000,0.200,2431.000,0.300,934.000,0.500,926.000,1.000,298.000,5.000,0
"03/04/08","14:02:14",34983.000,"cc",28301.537,1,0.100,30494.000,0.200,2419.000,0.300,870.000,0.500,885.000,1.000,315.000,5.000,0
"03/04/08","14:02:20",34925.000,"cc",28268.883,1,0.100,30268.000,0.200,2523.000,0.300,868.000,0.500,927.000,1.000,339.000,5.000,0
"03/04/08","14:02:26",34454.000,"cc",28290.768,1,0.100,29983.000,0.200,2443.000,0.300,834.000,0.500,860.000,1.000,334.000,5.000,0
"03/04/08","14:02:32",35111.000,"cc",28358.873,1,0.100,30474.000,0.200,2505.000,0.300,841.000,0.500,950.000,1.000,341.000,5.000,0
"03/04/08","14:02:38",35019.000,"cc",28306.977,1,0.100,30409.000,0.200,2486.000,0.300,878.000,0.500,912.000,1.000,334.000,5.000,0
"03/04/08","14:02:44",35174.000,"cc",28371.080,1,0.100,30611.000,0.200,2439.000,0.300,862.000,0.500,956.000,1.000,306.000,5.000,0
"03/04/08","14:02:50",35216.000,"cc",28314.492,1,0.100,30676.000,0.200,2391.000,0.300,890.000,0.500,917.000,1.000,342.000,5.000,0
"03/04/08","14:02:56",35605.000,"cc",28288.248,1,0.100,31023.000,0.200,2400.000,0.300,901.000,0.500,963.000,1.000,318.000,5.000,0
"03/04/08","14:03:02",35760.000,"cc",28290.658,1,0.100,31063.000,0.200,2458.000,0.300,942.000,0.500,961.000,1.000,336.000,5.000,0
"03/04/08","14:03:08",36730.000,"cc",28319.830,1,0.100,32000.000,0.200,2470.000,0.300,939.000,0.500,971.000,1.000,350.000,5.000,0
"03/04/08","14:03:14",36968.000,"cc",28381.094,1,0.100,32184.000,0.200,2500.000,0.300,905.000,0.500,1017.000,1.000,362.000,5.000,0
"03/04/08","14:03:20",37022.000,"cc",28297.234,1,0.100,32029.000,0.200,2586.000,0.300,984.000,0.500,1074.000,1.000,349.000,5.000,0
"03/04/08","14:03:26",36697.000,"cc",28255.477,1,0.100,31851.000,0.200,2510.000,0.300,934.000,0.500,1051.000,1.000,351.000,5.000,0
"03/04/08","14:03:32",37677.000,"cc",28339.906,1,0.100,32776.000,0.200,2458.000,0.300,930.000,0.500,1107.000,1.000,406.000,5.000,0
"03/04/08","14:03:38",37426.000,"cc",28239.272,1,0.100,32520.000,0.200,2537.000,0.300,958.000,0.500,1048.000,1.000,363.000,5.000,0
"03/04/08","14:03:44",37474.000,"cc",28329.877,1,0.100,32550.000,0.200,2566.000,0.300,943.000,0.500,1055.000,1.000,360.000,5.000,0
"03/04/08","14:03:50",37565.000,"cc",28366.248,1,0.100,32590.000,0.200,2596.000,0.300,947.000,0.500,1057.000,1.000,375.000,5.000,0
"03/04/08","14:03:56",37198.000,"cc",28333.291,1,0.100,32361.000,0.200,2420.000,0.300,912.000,0.500,1111.000,1.000,394.000,5.000,0
"03/04/08","14:04:02",37145.000,"cc",28337.022,1,0.100,32182.000,0.200,2547.000,0.300,971.000,0.500,1057.000,1.000,388.000,5.000,0
"03/04/08","14:04:08",37286.000,"cc",28231.680,1,0.100,32322.000,0.200,2519.000,0.300,990.000,0.500,1079.000,1.000,376.000,5.000,0
"03/04/08","14:04:14",37327.000,"cc",28293.809,1,0.100,32317.000,0.200,2511.000,0.300,1002.000,0.500,1106.000,1.000,391.000,5.000,0
"03/04/08","14:04:20",37391.000,"cc",28355.723,1,0.100,32427.000,0.200,2499.000,0.300,940.000,0.500,1119.000,1.000,406.000,5.000,0
"03/04/08","14:04:26",37269.000,"cc",28400.688,1,0.100,32282.000,0.200,2638.000,0.300,936.000,0.500,1047.000,1.000,366.000,5.000,0
"03/04/08","14:04:32",37156.000,"cc",28251.615,1,0.100,32229.000,0.200,2446.000,0.300,1037.000,0.500,1060.000,1.000,384.000,5.000,0
"03/04/08","14:04:38",36590.000,"cc",28304.838,1,0.100,31624.000,0.200,2586.000,0.300,964.000,0.500,1040.000,1.000,376.000,5.000,0
"03/04/08","14:04:44",36177.000,"cc",28376.885,1,0.100,31451.000,0.200,2479.000,0.300,913.000,0.500,1002.000,1.000,332.000,5.000,0
"03/04/08","14:04:50",36341.000,"cc",28284.525,1,0.100,31683.000,0.200,2413.000,0.300,927.000,0.500,954.000,1.000,364.000,5.000,0
"03/04/08","14:04:56",36119.000,"cc",28334.137,1,0.100,31400.000,0.200,2498.000,0.300,922.000,0.500,960.000,1.000,339.000,5.000,0
"03/04/08","14:05:02",36391.000,"cc",28321.549,1,0.100,31628.000,0.200,2503.000,0.300,942.000,0.500,974.000,1.000,344.000,5.000,0
"03/04/08","14:05:08",37040.000,"cc",28306.143,1,0.100,32094.000,0.200,2547.000,0.300,929.000,0.500,1076.000,1.000,394.000,5.000,0
"03/04/08","14:05:14",37093.000,"cc",28271.797,1,0.100,32038.000,0.200,2575.000,0.300,989.000,0.500,1118.000,1.000,373.000,5.000,0
"03/04/08","14:05:20",36989.000,"cc",28351.336,1,0.100,32109.000,0.200,2469.000,0.300,948.000,0.500,1079.000,1.000,384.000,5.000,0
"03/04/08","14:05:26",37232.000,"cc",28361.522,1,0.100,32376.000,0.200,2545.000,0.300,930.000,0.500,1029.000,1.000,352.000,5.000,0
"03/04/08","14:05:32",36730.000,"cc",28346.629,1,0.100,31916.000,0.200,2445.000,0.300,972.000,0.500,1030.000,1.000,367.000,5.000,0
"03/04/08","14:05:38",36935.000,"cc",28275.986,1,0.100,31970.000,0.200,2529.000,0.300,1013.000,0.500,1040.000,1.000,383.000,5.000,0
"03/04/08","14:05:44",37009.000,"cc",28264.871,1,0.100,32145.000,0.200,2504.000,0.300,953.000,0.500,1037.000,1.000,370.000,5.000,0
"03/04/08","14:05:50",37188.000,"cc",28318.883,1,0.100,32207.000,0.200,2562.000,0.300,933.000,0.500,1099.000,1.000,387.000,5.000,0
"03/04/08","14:05:56",37215.000,"cc",28375.361,1,0.100,32288.000,0.200,2561.000,0.300,976.000,0.500,997.000,1.000,393.000,5.000,0
"03/04/08","14:06:02",36611.000,"cc",28346.455,1,0.100,31594.000,0.200,2537.000,0.300,1059.000,0.500,1045.000,1.000,376.000,5.000,0
"03/04/08","14:06:08",36779.000,"cc",28245.752,1,0.100,31893.000,0.200,2509.000,0.300,929.000,0.500,1054.000,1.000,394.000,5.000,0
"03/04/08","14:06:14",36710.000,"cc",28358.525,1,0.100,31906.000,0.200,2485.000,0.300,945.000,0.500,985.000,1.000,389.000,5.000,0
"03/04/08","14:06:20",36971.000,"cc",28313.178,1,0.100,32037.000,0.200,2582.000,0.300,922.000,0.500,1079.000,1.000,351.000,5.000,0
"03/04/08","14:06:26",36611.000,"cc",28347.445,1,0.100,31739.000,0.200,2485.000,0.300,969.000,0.500,1062.000,1.000,356.000,5.000,0
"03/04/08","14:06:32",36991.000,"cc",28301.836,1,0.100,31941.000,0.200,2590.000,0.300,998.000,0.500,1094.000,1.000,368.000,5.000,0
"03/04/08","14:06:38",37039.000,"cc",28256.592,1,0.100,32072.000,0.200,2578.000,0.300,974.000,0.500,1022.000,1.000,393.000,5.000,0
"03/04/08","14:06:44",36737.000,"cc",28290.078,1,0.100,31785.000,0.200,2536.000,0.300,1014.000,0.500,1058.000,1.000,344.000,5.000,0
"03/04/08","14:06:50",36773.000,"cc",28415.547,1,0.100,31995.000,0.200,2360.000,0.300,968.000,0.500,1091.000,1.000,359.000,5.000,0
"03/04/08","14:06:56",36500.000,"cc",28327.402,1,0.100,31597.000,0.200,2523.000,0.300,962.000,0.500,1041.000,1.000,377.000,5.000,0
"03/04/08","14:07:02",36409.000,"cc",28322.065,1,0.100,31601.000,0.200,2487.000,0.300,1006.000,0.500,953.000,1.000,362.000,5.000,0
"03/04/08","14:07:08",36430.000,"cc",28352.481,1,0.100,31606.000,0.200,2471.000,0.300,972.000,0.500,1041.000,1.000,340.000,5.000,0
"03/04/08","14:07:14",36056.000,"cc",28309.391,1,0.100,31140.000,0.200,2541.000,0.300,922.000,0.500,1084.000,1.000,369.000,5.000,0
"03/04/08","14:07:20",36053.000,"cc",28286.482,1,0.100,31150.000,0.200,2518.000,0.300,966.000,0.500,1049.000,1.000,370.000,5.000,0
"03/04/08","14:07:26",36315.000,"cc",28260.561,1,0.100,31415.000,0.200,2443.000,0.300,992.000,0.500,1101.000,1.000,364.000,5.000,0
"03/04/08","14:07:32",36344.000,"cc",28344.682,1,0.100,31430.000,0.200,2474.000,0.300,981.000,0.500,1087.000,1.000,372.000,5.000,0
"03/04/08","14:07:38",36383.000,"cc",28323.945,1,0.100,31549.000,0.200,2443.000,0.300,923.000,0.500,1098.000,1.000,370.000,5.000,0
"03/04/08","14:07:44",36304.000,"cc",28286.856,1,0.100,31411.000,0.200,2549.000,0.300,952.000,0.500,1030.000,1.000,362.000,5.000,0
"03/04/08","14:07:50",36676.000,"cc",28374.014,1,0.100,31891.000,0.200,2465.000,0.300,955.000,0.500,994.000,1.000,371.000,5.000,0
"03/04/08","14:07:56",36537.000,"cc",28314.623,1,0.100,31680.000,0.200,2449.000,0.300,950.000,0.500,1066.000,1.000,392.000,5.000,0
"03/04/08","14:08:02",36562.000,"cc",28290.395,1,0.100,31583.000,0.200,2525.000,0.300,988.000,0.500,1087.000,1.000,379.000,5.000,0
"03/04/08","14:08:08",36083.000,"cc",28310.746,1,0.100,31214.000,0.200,2503.000,0.300,964.000,0.500,1042.000,1.000,360.000,5.000,0
"03/04/08","14:08:14",36237.000,"cc",28304.828,1,0.100,31370.000,0.200,2563.000,0.300,918.000,0.500,1020.000,1.000,366.000,5.000,0
"03/04/08","14:08:20",36565.000,"cc",28317.236,1,0.100,31657.000,0.200,2496.000,0.300,988.000,0.500,1051.000,1.000,373.000,5.000,0
"03/04/08","14:08:26",36780.000,"cc",28265.273,1,0.100,31655.000,0.200,2643.000,0.300,936.000,0.500,1162.000,1.000,384.000,5.000,0
"03/04/08","14:08:32",36414.000,"cc",28319.457,1,0.100,31463.000,0.200,2473.000,0.300,1009.000,0.500,1075.000,1.000,394.000,5.000,0
"03/04/08","14:08:38",36410.000,"cc",28345.836,1,0.100,31510.000,0.200,2501.000,0.300,958.000,0.500,1055.000,1.000,386.000,5.000,0
"03/04/08","14:08:44",35915.000,"cc",28251.645,1,0.100,31132.000,0.200,2514.000,0.300,868.000,0.500,1032.000,1.000,369.000,5.000,0
"03/04/08","14:08:50",36323.000,"cc",28313.545,1,0.100,31395.000,0.200,2483.000,0.300,1018.000,0.500,1066.000,1.000,361.000,5.000,0
"03/04/08","14:08:56",36659.000,"cc",28306.658,1,0.100,31688.000,0.200,2592.000,0.300,928.000,0.500,1081.000,1.000,370.000,5.000,0
"03/04/08","14:09:02",36258.000,"cc",28368.940,1,0.100,31271.000,0.200,2577.000,0.300,982.000,0.500,1042.000,1.000,386.000,5.000,0
"03/04/08","14:09:08",36621.000,"cc",28311.078,1,0.100,31628.000,0.200,2527.000,0.300,1044.000,0.500,1049.000,1.000,373.000,5.000,0
"03/04/08","14:09:14",36856.000,"cc",28311.117,1,0.100,31907.000,0.200,2559.000,0.300,956.000,0.500,1074.000,1.000,360.000,5.000,0
"03/04/08","14:09:20",37809.000,"cc",28327.500,1,0.100,32662.000,0.200,2531.000,0.300,1096.000,0.500,1160.000,1.000,360.000,5.000,0
"03/04/08","14:09:26",38212.000,"cc",28361.402,1,0.100,32948.000,0.200,2709.000,0.300,985.000,0.500,1159.000,1.000,411.000,5.000,0
"03/04/08","14:09:32",39303.000,"cc",28277.123,1,0.100,33930.000,0.200,2689.000,0.300,1048.000,0.500,1224.000,1.000,412.000,5.000,0
"03/04/08","14:09:38",40638.000,"cc",28253.959,1,0.100,35203.000,0.200,2692.000,0.300,1171.000,0.500,1164.000,1.000,408.000,5.000,0
"03/04/08","14:09:44",40448.000,"cc",28359.525,1,0.100,34980.000,0.200,2705.000,0.300,1144.000,0.500,1176.000,1.000,443.000,5.000,0
"03/04/08","14:09:50",39842.000,"cc",28409.840,1,0.100,34498.000,0.200,2667.000,0.300,1079.000,0.500,1144.000,1.000,454.000,5.000,0
"03/04/08","14:09:56",39515.000,"cc",28283.279,1,0.100,34233.000,0.200,2667.000,0.300,1026.000,0.500,1157.000,1.000,432.000,5.000,0
"03/04/08","14:10:02",39553.000,"cc",28251.953,1,0.100,34253.000,0.200,2634.000,0.300,1044.000,0.500,1163.000,1.000,459.000,5.000,0
"03/04/08","14:10:08",39400.000,"cc",28330.084,1,0.100,34224.000,0.200,2565.000,0.300,1030.000,0.500,1164.000,1.000,417.000,5.000,0
"03/04/08","14:10:14",39226.000,"cc",28274.889,1,0.100,33919.000,0.200,2586.000,0.300,1072.000,0.500,1209.000,1.000,440.000,5.000,0
"03/04/08","14:10:20",38830.000,"cc",28322.400,1,0.100,33755.000,0.200,2488.000,0.300,1027.000,0.500,1132.000,1.000,428.000,5.000,0
"03/04/08","14:10:26",39113.000,"cc",28300.869,1,0.100,33870.000,0.200,2633.000,0.300,1023.000,0.500,1194.000,1.000,393.000,5.000,0
"03/04/08","14:10:32",39260.000,"cc",28301.504,1,0.100,33903.000,0.200,2657.000,0.300,1090.000,0.500,1187.000,1.000,423.000,5.000,0
"03/04/08","14:10:38",38944.000,"cc",28351.471,1,0.100,33650.000,0.200,2635.000,0.300,1044.000,0.500,1164.000,1.000,451.000,5.000,0
"03/04/08","14:10:44",39346.000,"cc",28266.832,1,0.100,34000.000,0.200,2691.000,0.300,1065.000,0.500,1172.000,1.000,418.000,5.000,0
"03/04/08","14:10:50",39903.000,"cc",28311.834,1,0.100,34491.000,0.200,2759.000,0.300,1119.000,0.500,1109.000,1.000,425.000,5.000,0
"03/04/08","14:10:56",39883.000,"cc",28300.994,1,0.100,34413.000,0.200,2743.000,0.300,1089.000,0.500,1212.000,1.000,426.000,5.000,0
"03/04/08","14:11:02",39687.000,"cc",28383.512,1,0.100,34422.000,0.200,2689.000,0.300,1037.000,0.500,1147.000,1.000,392.000,5.000,0
"03/04/08","14:11:08",39483.000,"cc",28287.047,1,0.100,34161.000,0.200,2626.000,0.300,1064.000,0.500,1199.000,1.000,433.000,5.000,0
"03/04/08","14:11:14",39650.000,"cc",28326.244,1,0.100,34136.000,0.200,2770.000,0.300,1058.000,0.500,1229.000,1.000,457.000,5.000,0
"03/04/08","14:11:20",40116.000,"cc",28281.518,1,0.100,34622.000,0.200,2716.000,0.300,1099.000,0.500,1225.000,1.000,454.000,5.000,0
"03/04/08","14:11:26",39537.000,"cc",28317.604,1,0.100,34232.000,0.200,2503.000,0.300,1150.000,0.500,1178.000,1.000,474.000,5.000,0
"03/04/08","14:11:32",39699.000,"cc",28402.924,1,0.100,34281.000,0.200,2720.000,0.300,1081.000,0.500,1188.000,1.000,429.000,5.000,0
"03/04/08","14:11:38",39418.000,"cc",28273.047,1,0.100,34014.000,0.200,2652.000,0.300,1112.000,0.500,1219.000,1.000,421.000,5.000,0
"03/04/08","14:11:44",39613.000,"cc",28301.397,1,0.100,34284.000,0.200,2689.000,0.300,1053.000,0.500,1154.000,1.000,433.000,5.000,0
"03/04/08","14:11:50",39662.000,"cc",28344.037,1,0.100,34371.000,0.200,2668.000,0.300,1062.000,0.500,1145.000,1.000,416.000,5.000,0
"03/04/08","14:11:56",39701.000,"cc",28284.852,1,0.100,34494.000,0.200,2640.000,0.300,988.000,0.500,1184.000,1.000,395.000,5.000,0
"03/04/08","14:12:02",39439.000,"cc",28354.732,1,0.100,34057.000,0.200,2628.000,0.300,1110.000,0.500,1179.000,1.000,465.000,5.000,0
"03/04/08","14:12:08",39474.000,"cc",28281.147,1,0.100,34022.000,0.200,2675.000,0.300,1120.000,0.500,1205.000,1.000,452.000,5.000,0
"03/04/08","14:12:14",39030.000,"cc",28334.242,1,0.100,33661.000,0.200,2681.000,0.300,1058.000,0.500,1191.000,1.000,439.000,5.000,0
"03/04/08","14:12:20",39365.000,"cc",28284.623,1,0.100,33845.000,0.200,2669.000,0.300,1125.000,0.500,1243.000,1.000,483.000,5.000,0
"03/04/08","14:12:26",39398.000,"cc",28319.078,1,0.100,33796.000,0.200,2734.000,0.300,1138.000,0.500,1310.000,1.000,420.000,5.000,0
"03/04/08","14:12:32",39647.000,"cc",28295.352,1,0.100,34118.000,0.200,2669.000,0.300,1135.000,0.500,1267.000,1.000,458.000,5.000,0
"03/04/08","14:12:38",39741.000,"cc",28307.793,1,0.100,34032.000,0.200,2798.000,0.300,1164.000,0.500,1271.000,1.000,476.000,5.000,0
"03/04/08","14:12:44",40544.000,"cc",28398.129,1,0.100,35018.000,0.200,2690.000,0.300,1115.000,0.500,1235.000,1.000,486.000,5.000,0
"03/04/08","14:12:50",40461.000,"cc",28319.889,1,0.100,34917.000,0.200,2767.000,0.300,1116.000,0.500,1196.000,1.000,465.000,5.000,0
"03/04/08","14:12:56",40424.000,"cc",28307.289,1,0.100,34789.000,0.200,2775.000,0.300,1112.000,0.500,1273.000,1.000,475.000,5.000,0
"03/04/08","14:13:02",40709.000,"cc",28308.793,1,0.100,35082.000,0.200,2833.000,0.300,1101.000,0.500,1243.000,1.000,450.000,5.000,0
"03/04/08","14:13:08",39728.000,"cc",28338.844,1,0.100,34216.000,0.200,2725.000,0.300,1129.000,0.500,1229.000,1.000,429.000,5.000,0
"03/04/08","14:13:14",39911.000,"cc",28348.738,1,0.100,34477.000,0.200,2619.000,0.300,1187.000,0.500,1232.000,1.000,396.000,5.000,0
"03/04/08","14:13:20",39499.000,"cc",28365.465,1,0.100,33901.000,0.200,2702.000,0.300,1153.000,0.500,1280.000,1.000,463.000,5.000,0
"03/04/08","14:13:26",39832.000,"cc",28285.252,1,0.100,34270.000,0.200,2713.000,0.300,1162.000,0.500,1239.000,1.000,448.000,5.000,0
"03/04/08","14:13:32",39845.000,"cc",28290.678,1,0.100,34183.000,0.200,2703.000,0.300,1180.000,0.500,1275.000,1.000,504.000,5.000,0
"03/04/08","14:13:38",39890.000,"cc",28329.811,1,0.100,34331.000,0.200,2708.000,0.300,1113.000,0.500,1244.000,1.000,494.000,5.000,0
"03/04/08","14:13:44",39429.000,"cc",28298.316,1,0.100,33916.000,0.200,2686.000,0.300,1136.000,0.500,1249.000,1.000,442.000,5.000,0
"03/04/08","14:13:50",39408.000,"cc",28331.811,1,0.100,33868.000,0.200,2662.000,0.300,1154.000,0.500,1275.000,1.000,449.000,5.000,0
"03/04/08","14:13:56",39944.000,"cc",28251.430,1,0.100,34347.000,0.200,2638.000,0.300,1152.000,0.500,1338.000,1.000,469.000,5.000,0
"03/04/08","14:14:02",39947.000,"cc",28340.342,1,0.100,34446.000,0.200,2638.000,0.300,1126.000,0.500,1275.000,1.000,462.000,5.000,0
"03/04/08","14:14:08",40014.000,"cc",28295.498,1,0.100,34326.000,0.200,2750.000,0.300,1194.000,0.500,1244.000,1.000,500.000,5.000,0
"03/04/08","14:14:14",39598.000,"cc",28303.516,1,0.100,34015.000,0.200,2657.000,0.300,1123.000,0.500,1325.000,1.000,478.000,5.000,0
"03/04/08","14:14:20",39046.000,"cc",28341.217,1,0.100,33579.000,0.200,2647.000,0.300,1105.000,0.500,1234.000,1.000,481.000,5.000,0
"03/04/08","14:14:26",39245.000,"cc",28363.131,1,0.100,33673.000,0.200,2724.000,0.300,1125.000,0.500,1286.000,1.000,437.000,5.000,0
"03/04/08","14:14:32",39529.000,"cc",28316.930,1,0.100,34043.000,0.200,2628.000,0.300,1155.000,0.500,1282.000,1.000,421.000,5.000,0
"03/04/08","14:14:38",39781.000,"cc",28280.541,1,0.100,34269.000,0.200,2696.000,0.300,1156.000,0.500,1233.000,1.000,427.000,5.000,0
"03/04/08","14:14:44",39572.000,"cc",28228.531,1,0.100,34074.000,0.200,2714.000,0.300,1138.000,0.500,1182.000,1.000,464.000,5.000,0
"03/04/08","14:14:50",39495.000,"cc",28341.635,1,0.100,33882.000,0.200,2655.000,0.300,1231.000,0.500,1259.000,1.000,468.000,5.000,0
"03/04/08","14:14:56",39257.000,"cc",28337.166,1,0.100,33725.000,0.200,2664.000,0.300,1145.000,0.500,1264.000,1.000,459.000,5.000,0
"03/04/08","14:15:02",39501.000,"cc",28315.066,1,0.100,33970.000,0.200,2691.000,0.300,1128.000,0.500,1256.000,1.000,456.000,5.000,0
"03/04/08","14:15:08",39641.000,"cc",28314.744,1,0.100,34100.000,0.200,2632.000,0.300,1161.000,0.500,1281.000,1.000,467.000,5.000,0
"03/04/08","14:15:14",39504.000,"cc",28307.545,1,0.100,33955.000,0.200,2695.000,0.300,1171.000,0.500,1248.000,1.000,435.000,5.000,0
"03/04/08","14:15:20",39514.000,"cc",28328.729,1,0.100,33853.000,0.200,2731.000,0.300,1236.000,0.500,1239.000,1.000,455.000,5.000,0
"03/04/08","14:15:26",39098.000,"cc",28350.996,1,0.100,33512.000,0.200,2728.000,0.300,1187.000,0.500,1222.000,1.000,449.000,5.000,0
"03/04/08","14:15:32",39747.000,"cc",28327.799,1,0.100,34050.000,0.200,2817.000,0.300,1173.000,0.500,1261.000,1.000,446.000,5.000,0
"03/04/08","14:15:38",40246.000,"cc",28276.912,1,0.100,34682.000,0.200,2755.000,0.300,1148.000,0.500,1233.000,1.000,428.000,5.000,0
"03/04/08","14:15:44",39657.000,"cc",28308.545,1,0.100,34179.000,0.200,2630.000,0.300,1136.000,0.500,1248.000,1.000,464.000,5.000,0
"03/04/08","14:15:50",40020.000,"cc",28373.309,1,0.100,34434.000,0.200,2756.000,0.300,1114.000,0.500,1271.000,1.000,445.000,5.000,0
"03/04/08","14:15:56",39706.000,"cc",28295.635,1,0.100,34144.000,0.200,2620.000,0.300,1126.000,0.500,1341.000,1.000,475.000,5.000,0
"03/04/08","14:16:02",39681.000,"cc",28302.611,1,0.100,34153.000,0.200,2740.000,0.300,1139.000,0.500,1251.000,1.000,398.000,5.000,0
"03/04/08","14:16:08",39860.000,"cc",28301.377,1,0.100,34267.000,0.200,2729.000,0.300,1167.000,0.500,1208.000,1.000,489.000,5.000,0
"03/04/08","14:16:14",39936.000,"cc",28287.391,1,0.100,34497.000,0.200,2659.000,0.300,1108.000,0.500,1201.000,1.000,471.000,5.000,0
"03/04/08","14:16:20",39820.000,"cc",28424.072,1,0.100,34153.000,0.200,2770.000,0.300,1143.000,0.500,1290.000,1.000,464.000,5.000,0
"03/04/08","14:16:26",39677.000,"cc",28370.690,1,0.100,34064.000,0.200,2672.000,0.300,1150.000,0.500,1314.000,1.000,477.000,5.000,0
"03/04/08","14:16:32",40030.000,"cc",28239.277,1,0.100,34545.000,0.200,2684.000,0.300,1086.000,0.500,1264.000,1.000,451.000,5.000,0
"03/04/08","14:16:38",39761.000,"cc",28339.049,1,0.100,34224.000,0.200,2712.000,0.300,1167.000,0.500,1190.000,1.000,468.000,5.000,0
"03/04/08","14:16:44",39615.000,"cc",28341.547,1,0.100,34185.000,0.200,2642.000,0.300,1097.000,0.500,1240.000,1.000,451.000,5.000,0
"03/04/08","14:16:50",39927.000,"cc",28276.082,1,0.100,34216.000,0.200,2772.000,0.300,1188.000,0.500,1275.000,1.000,476.000,5.000,0
"03/04/08","14:16:56",40257.000,"cc",28309.852,1,0.100,34786.000,0.200,2713.000,0.300,1104.000,0.500,1213.000,1.000,441.000,5.000,0
"03/04/08","14:17:02",39936.000,"cc",28321.356,1,0.100,34388.000,0.200,2694.000,0.300,1119.000,0.500,1252.000,1.000,483.000,5.000,0